| time (UTC) | temp C | wind direction | speed KPH | gust KPH | rain 1hr cm | rain 24hr cm | rain mn cm | humidity % | barometer mb |
| 20260504190808 | -17 | 147 | 410.4 | 0.0 | 0.00 | 0.00 | 0.00 | ||
| 20260504190803 | 19 | 257 | 8.0 | 20.9 | 0.00 | 0.00 | 0.00 | 42 | 1010.3 |
| 20260504190303 | 19 | 242 | 9.7 | 17.7 | 0.00 | 0.00 | 0.00 | 40 | 1010.2 |
| 20260504185803 | 19 | 263 | 9.7 | 17.7 | 0.00 | 0.00 | 0.00 | 42 | 1010.3 |
| 20260504184802 | 18 | 278 | 6.4 | 24.1 | 0.00 | 0.00 | 0.00 | 43 | 1010.4 |
| 20260504184302 | 18 | 197 | 9.7 | 11.3 | 0.00 | 0.00 | 0.00 | 42 | 1010.5 |
| 20260504183807 | -17 | 147 | 410.4 | 0.0 | 0.00 | 0.00 | 0.00 | ||
| 20260504183802 | 18 | 281 | 9.7 | 30.6 | 0.00 | 0.00 | 0.00 | 41 | 1010.6 |
| 20260504183301 | 18 | 198 | 8.0 | 17.7 | 0.00 | 0.00 | 0.00 | 42 | 1010.6 |
| 20260504182801 | 18 | 223 | 9.7 | 20.9 | 0.00 | 0.00 | 0.00 | 43 | 1010.8 |
| 20260504182301 | 18 | 200 | 9.7 | 20.9 | 0.00 | 0.00 | 0.00 | 43 | 1010.7 |
| 20260504181800 | 18 | 261 | 9.7 | 20.9 | 0.00 | 0.00 | 0.00 | 43 | 1010.6 |
| 20260504181300 | 18 | 244 | 8.0 | 20.9 | 0.00 | 0.00 | 0.00 | 43 | 1010.7 |
| 20260504180805 | -17 | 147 | 410.4 | 0.0 | 0.00 | 0.00 | 0.00 | ||
| 20260504180800 | 18 | 200 | 8.0 | 17.7 | 0.00 | 0.00 | 0.00 | 43 | 1010.8 |
| 20260504180300 | 17 | 247 | 9.7 | 20.9 | 0.00 | 0.00 | 0.00 | 43 | 1011.0 |
| 20260504175759 | 17 | 242 | 9.7 | 20.9 | 0.00 | 0.00 | 0.00 | 44 | 1011.0 |
| 20260504175304 | -17 | 147 | 410.4 | 0.0 | 0.00 | 0.00 | 0.00 | ||
| 20260504175300 | 17 | 227 | 9.7 | 19.3 | 0.00 | 0.00 | 0.00 | 44 | 1011.1 |
| 20260504174759 | 17 | 269 | 9.7 | 20.9 | 0.00 | 0.00 | 0.00 | 44 | 1011.1 |
| 20260504174258 | 17 | 259 | 11.3 | 19.3 | 0.00 | 0.00 | 0.00 | 45 | 1011.1 |
| 20260504173804 | -17 | 147 | 410.4 | 0.0 | 0.00 | 0.00 | 0.00 | ||
| 20260504173758 | 17 | 236 | 9.7 | 24.1 | 0.00 | 0.00 | 0.00 | 44 | 1011.2 |
| 20260504173258 | 17 | 251 | 9.7 | 19.3 | 0.00 | 0.00 | 0.00 | 45 | 1011.3 |
| 20260504172758 | 17 | 180 | 11.3 | 20.9 | 0.00 | 0.00 | 0.00 | 45 | 1011.4 |
| 20260504172257 | 17 | 219 | 9.7 | 19.3 | 0.00 | 0.00 | 0.00 | 43 | 1011.4 |
| 20260504171757 | 17 | 245 | 9.7 | 20.9 | 0.00 | 0.00 | 0.00 | 43 | 1011.5 |
| 20260504171257 | 17 | 217 | 9.7 | 22.5 | 0.00 | 0.00 | 0.00 | 43 | 1011.5 |
| 20260504170801 | -17 | 147 | 410.4 | 0.0 | 0.00 | 0.00 | 0.00 | ||
| 20260504170756 | 17 | 242 | 11.3 | 20.9 | 0.00 | 0.00 | 0.00 | 44 | 1011.8 |
| 20260504170256 | 16 | 227 | 11.3 | 24.1 | 0.00 | 0.00 | 0.00 | 45 | 1011.8 |
| 20260504160253 | 15 | 149 | 11.3 | 22.5 | 0.00 | 0.00 | 0.00 | 42 | 1012.4 |
| 20260504150755 | -17 | 147 | 410.4 | 0.0 | 0.00 | 0.00 | 0.00 | ||
| 20260504150749 | 14 | 185 | 8.0 | 19.3 | 0.00 | 0.00 | 0.00 | 42 | 1013.1 |
| 20260504150249 | 14 | 194 | 8.0 | 20.9 | 0.00 | 0.00 | 0.00 | 44 | 1013.0 |
| 20260504141246 | 13 | 200 | 9.7 | 17.7 | 0.00 | 0.00 | 0.00 | 44 | 1013.3 |
| 20260504140751 | -17 | 147 | 410.4 | 0.0 | 0.00 | 0.00 | 0.00 | ||
| 20260504140746 | 13 | 214 | 8.0 | 20.9 | 0.00 | 0.00 | 0.00 | 44 | 1013.3 |
| 20260504140245 | 13 | 214 | 8.0 | 17.7 | 0.00 | 0.00 | 0.00 | 45 | 1013.3 |
| 20260504130747 | -17 | 147 | 410.4 | 0.0 | 0.00 | 0.00 | 0.00 | ||
| 20260504130742 | 11 | 223 | 9.7 | 20.9 | 0.00 | 0.00 | 0.00 | 50 | 1013.5 |
| 20260504110236 | 6 | 232 | 4.8 | 11.3 | 0.00 | 0.00 | 0.00 | 60 | 1013.8 |
| 20260504100232 | 6 | 200 | 4.8 | 11.3 | 0.00 | 0.00 | 0.00 | 63 | 1013.7 |
| 20260504081726 | 5 | 234 | 4.8 | 11.3 | 0.00 | 0.00 | 0.00 | 64 | 1014.0 |
| 20260504081225 | 5 | 239 | 4.8 | 9.7 | 0.00 | 0.00 | 0.00 | 64 | 1013.9 |
| 20260504080730 | -17 | 147 | 410.4 | 0.0 | 0.00 | 0.00 | 0.00 | ||
| 20260504080726 | 5 | 218 | 3.2 | 9.7 | 0.00 | 0.00 | 0.00 | 64 | 1013.9 |
| 20260504070224 | 6 | 224 | 4.8 | 9.7 | 0.00 | 0.00 | 0.00 | 61 | 1013.9 |
| 20260504060218 | 6 | 257 | 6.4 | 14.5 | 0.00 | 0.00 | 0.00 | 59 | 1013.9 |
| 20260504050719 | -17 | 147 | 410.4 | 0.0 | 0.00 | 0.00 | 0.00 | ||
| 20260504050715 | 7 | 238 | 6.4 | 11.3 | 0.00 | 0.00 | 0.00 | 59 | 1013.9 |
| 20260504045714 | 7 | 245 | 6.4 | 20.9 | 0.00 | 0.00 | 0.00 | 59 | 1013.9 |
| 20260504045219 | -17 | 147 | 410.4 | 0.0 | 0.00 | 0.00 | 0.00 | ||
| 20260504045214 | 7 | 254 | 6.4 | 14.5 | 0.00 | 0.00 | 0.00 | 59 | 1013.9 |
| 20260504044714 | 7 | 265 | 6.4 | 12.9 | 0.00 | 0.00 | 0.00 | 59 | 1013.9 |
| 20260504044214 | 7 | 246 | 6.4 | 14.5 | 0.00 | 0.00 | 0.00 | 59 | 1013.9 |
| 20260504043718 | -17 | 147 | 410.4 | 0.0 | 0.00 | 0.00 | 0.00 | ||
| 20260504043713 | 7 | 229 | 6.4 | 16.1 | 0.00 | 0.00 | 0.00 | 59 | 1013.8 |
| 20260504043213 | 7 | 250 | 6.4 | 14.5 | 0.00 | 0.00 | 0.00 | 59 | 1013.8 |
| 20260504042217 | -17 | 147 | 410.4 | 0.0 | 0.00 | 0.00 | 0.00 | ||
| 20260504042212 | 7 | 217 | 6.4 | 11.3 | 0.00 | 0.00 | 0.00 | 58 | 1013.8 |
| 20260504041712 | 7 | 257 | 6.4 | 12.9 | 0.00 | 0.00 | 0.00 | 57 | 1013.7 |
| 20260504041211 | 7 | 257 | 4.8 | 11.3 | 0.00 | 0.00 | 0.00 | 57 | 1013.7 |
| 20260504040716 | -17 | 147 | 410.4 | 0.0 | 0.00 | 0.00 | 0.00 | ||
| 20260504040711 | 7 | 260 | 6.4 | 17.7 | 0.00 | 0.00 | 0.00 | 56 | 1013.6 |
| 20260504040211 | 7 | 213 | 4.8 | 12.9 | 0.00 | 0.00 | 0.00 | 56 | 1013.7 |
| 20260504035711 | 7 | 248 | 4.8 | 9.7 | 0.00 | 0.00 | 0.00 | 56 | 1013.7 |
| 20260504035215 | -17 | 147 | 410.4 | 0.0 | 0.00 | 0.00 | 0.00 | ||
| 20260504035210 | 7 | 209 | 4.8 | 14.5 | 0.00 | 0.00 | 0.00 | 56 | 1013.6 |
| 20260504034710 | 7 | 263 | 3.2 | 9.7 | 0.00 | 0.00 | 0.00 | 56 | 1013.5 |
| 20260504034210 | 7 | 274 | 4.8 | 12.9 | 0.00 | 0.00 | 0.00 | 56 | 1013.5 |
| 20260504033709 | 7 | 250 | 4.8 | 9.7 | 0.00 | 0.00 | 0.00 | 55 | 1013.5 |
| 20260504033209 | 7 | 236 | 4.8 | 14.5 | 0.00 | 0.00 | 0.00 | 55 | 1013.4 |
| 20260504032709 | 7 | 263 | 4.8 | 12.9 | 0.00 | 0.00 | 0.00 | 55 | 1013.4 |
| 20260504032213 | -17 | 147 | 410.4 | 0.0 | 0.00 | 0.00 | 0.00 | ||
| 20260504032209 | 7 | 243 | 4.8 | 12.9 | 0.00 | 0.00 | 0.00 | 55 | 1013.5 |
| 20260504031708 | 7 | 261 | 4.8 | 6.4 | 0.00 | 0.00 | 0.00 | 55 | 1013.5 |
| 20260504031208 | 7 | 285 | 4.8 | 12.9 | 0.00 | 0.00 | 0.00 | 55 | 1013.4 |
| 20260504030713 | -17 | 147 | 410.4 | 0.0 | 0.00 | 0.00 | 0.00 | ||
| 20260504030708 | 7 | 240 | 4.8 | 12.9 | 0.00 | 0.00 | 0.00 | 55 | 1013.4 |
| 20260504030207 | 7 | 246 | 4.8 | 11.3 | 0.00 | 0.00 | 0.00 | 55 | 1013.4 |
| 20260504025707 | 7 | 234 | 4.8 | 11.3 | 0.00 | 0.00 | 0.00 | 55 | 1013.4 |
| 20260504025213 | -17 | 147 | 410.4 | 0.0 | 0.00 | 0.00 | 0.00 | ||
| 20260504025207 | 7 | 234 | 4.8 | 9.7 | 0.00 | 0.00 | 0.00 | 54 | 1013.4 |
| 20260504024706 | 7 | 242 | 4.8 | 9.7 | 0.00 | 0.00 | 0.00 | 54 | 1013.5 |
| 20260504024206 | 7 | 246 | 3.2 | 8.0 | 0.00 | 0.00 | 0.00 | 54 | 1013.5 |
| 20260504023711 | -17 | 147 | 410.4 | 0.0 | 0.00 | 0.00 | 0.00 | ||
| 20260504023706 | 7 | 250 | 3.2 | 6.4 | 0.00 | 0.00 | 0.00 | 54 | 1013.4 |
| 20260504022705 | 8 | 248 | 3.2 | 6.4 | 0.00 | 0.00 | 0.00 | 53 | 1013.6 |
| 20260504022210 | -17 | 147 | 410.4 | 0.0 | 0.00 | 0.00 | 0.00 | ||
| 20260504022205 | 8 | 253 | 3.2 | 9.7 | 0.00 | 0.00 | 0.00 | 52 | 1013.6 |
| 20260504021705 | 8 | 252 | 4.8 | 12.9 | 0.00 | 0.00 | 0.00 | 51 | 1013.6 |
| 20260504021205 | 8 | 254 | 4.8 | 12.9 | 0.00 | 0.00 | 0.00 | 51 | 1013.6 |
| 20260504020709 | -17 | 147 | 410.4 | 0.0 | 0.00 | 0.00 | 0.00 | ||
| 20260504020704 | 8 | 254 | 3.2 | 9.7 | 0.00 | 0.00 | 0.00 | 51 | 1013.6 |
| 20260504020204 | 8 | 228 | 4.8 | 11.3 | 0.00 | 0.00 | 0.00 | 51 | 1013.5 |
| 20260504015704 | 8 | 254 | 4.8 | 11.3 | 0.00 | 0.00 | 0.00 | 50 | 1013.5 |
| 20260504015209 | -17 | 147 | 410.4 | 0.0 | 0.00 | 0.00 | 0.00 | ||
| 20260504015203 | 8 | 280 | 4.8 | 11.3 | 0.00 | 0.00 | 0.00 | 50 | 1013.5 |
| 20260504014703 | 8 | 215 | 4.8 | 11.3 | 0.00 | 0.00 | 0.00 | 50 | 1013.5 |
| 20260504014203 | 8 | 242 | 4.8 | 9.7 | 0.00 | 0.00 | 0.00 | 50 | 1013.4 |
| 20260504013707 | -17 | 147 | 410.4 | 0.0 | 0.00 | 0.00 | 0.00 | ||
| 20260504013702 | 9 | 244 | 6.4 | 12.9 | 0.00 | 0.00 | 0.00 | 49 | 1013.4 |
| 20260504013202 | 9 | 223 | 8.0 | 14.5 | 0.00 | 0.00 | 0.00 | 48 | 1013.4 |
| 20260504012702 | 10 | 235 | 8.0 | 16.1 | 0.00 | 0.00 | 0.00 | 48 | 1013.3 |
| 20260504012206 | -17 | 147 | 410.4 | 0.0 | 0.00 | 0.00 | 0.00 | ||
| 20260504012202 | 10 | 281 | 8.0 | 19.3 | 0.00 | 0.00 | 0.00 | 47 | 1013.3 |
| 20260504011701 | 10 | 252 | 6.4 | 16.1 | 0.00 | 0.00 | 0.00 | 47 | 1013.3 |
| 20260504011201 | 9 | 256 | 6.4 | 16.1 | 0.00 | 0.00 | 0.00 | 48 | 1013.3 |
| 20260504010706 | -17 | 147 | 410.4 | 0.0 | 0.00 | 0.00 | 0.00 | ||
| 20260504010701 | 9 | 276 | 6.4 | 14.5 | 0.00 | 0.00 | 0.00 | 47 | 1013.2 |
| 20260504010200 | 10 | 244 | 4.8 | 16.1 | 0.00 | 0.00 | 0.00 | 47 | 1013.2 |
| 20260504005700 | 10 | 248 | 4.8 | 14.5 | 0.00 | 0.00 | 0.00 | 47 | 1013.1 |
| 20260504005205 | -17 | 147 | 410.4 | 0.0 | 0.00 | 0.00 | 0.00 | ||
| 20260504005202 | 10 | 226 | 6.4 | 16.1 | 0.00 | 0.00 | 0.00 | 47 | 1013.1 |
| 20260504004700 | 10 | 284 | 4.8 | 12.9 | 0.00 | 0.00 | 0.00 | 46 | 1013.1 |
| 20260504004159 | 10 | 248 | 6.4 | 16.1 | 0.00 | 0.00 | 0.00 | 46 | 1013.0 |
| 20260504003704 | -17 | 147 | 410.4 | 0.0 | 0.00 | 0.00 | 0.00 | ||
| 20260504003659 | 10 | 245 | 6.4 | 12.9 | 0.00 | 0.00 | 0.00 | 45 | 1012.9 |
| 20260504003159 | 10 | 245 | 6.4 | 16.1 | 0.00 | 0.00 | 0.00 | 45 | 1012.9 |
| 20260504002658 | 10 | 276 | 4.8 | 12.9 | 0.00 | 0.00 | 0.00 | 46 | 1012.8 |
| 20260504002200 | 10 | 242 | 4.8 | 16.1 | 0.00 | 0.00 | 0.00 | 45 | 1012.7 |
| 20260504001658 | 10 | 264 | 4.8 | 8.0 | 0.00 | 0.00 | 0.00 | 45 | 1012.7 |
| 20260504001158 | 10 | 294 | 4.8 | 8.0 | 0.00 | 0.00 | 0.00 | 45 | 1012.7 |
| 20260504000702 | -17 | 147 | 410.4 | 0.0 | 0.00 | 0.00 | 0.00 | ||
| 20260504000657 | 10 | 250 | 4.8 | 11.3 | 0.00 | 0.00 | 0.00 | 44 | 1012.8 |
| 20260504000157 | 10 | 261 | 4.8 | 9.7 | 0.00 | 0.00 | 0.00 | 44 | 1012.7 |
| 20260503235657 | 10 | 263 | 3.2 | 9.7 | 0.00 | 0.00 | 0.00 | 44 | 1012.7 |
| 20260503235201 | -17 | 147 | 410.4 | 0.0 | 0.00 | 0.00 | 0.00 | ||
| 20260503234656 | 10 | 243 | 4.8 | 16.1 | 0.00 | 0.00 | 0.00 | 44 | 1012.5 |
| 20260503234158 | 11 | 344 | 6.4 | 17.7 | 0.00 | 0.00 | 0.00 | 43 | 1012.5 |
| 20260503233700 | -17 | 147 | 410.4 | 0.0 | 0.00 | 0.00 | 0.00 | ||
| 20260503233655 | 11 | 311 | 4.8 | 20.9 | 0.00 | 0.00 | 0.00 | 43 | 1012.5 |
| 20260503233155 | 11 | 271 | 6.4 | 11.3 | 0.00 | 0.00 | 0.00 | 43 | 1012.4 |
| 20260503232655 | 11 | 255 | 6.4 | 17.7 | 0.00 | 0.00 | 0.00 | 42 | 1012.4 |
| 20260503232157 | 11 | 332 | 6.4 | 16.1 | 0.00 | 0.00 | 0.00 | 42 | 1012.3 |
| 20260503231654 | 11 | 233 | 6.4 | 24.1 | 0.00 | 0.00 | 0.00 | 42 | 1012.3 |
| 20260503231154 | 11 | 215 | 4.8 | 16.1 | 0.00 | 0.00 | 0.00 | 42 | 1012.3 |
| 20260503230659 | -17 | 147 | 410.4 | 0.0 | 0.00 | 0.00 | 0.00 | ||
| 20260503230654 | 11 | 276 | 6.4 | 14.5 | 0.00 | 0.00 | 0.00 | 43 | 1012.4 |
| 20260503230153 | 11 | 212 | 6.4 | 24.1 | 0.00 | 0.00 | 0.00 | 42 | 1012.3 |
| 20260503225653 | 11 | 181 | 4.8 | 14.5 | 0.00 | 0.00 | 0.00 | 42 | 1012.2 |
| 20260503225158 | -17 | 147 | 410.4 | 0.0 | 0.00 | 0.00 | 0.00 | ||
| 20260503224653 | 12 | 277 | 6.4 | 16.1 | 0.00 | 0.00 | 0.00 | 40 | 1012.1 |
| 20260503224152 | 12 | 5 | 6.4 | 22.5 | 0.00 | 0.00 | 0.00 | 40 | 1012.2 |
| 20260503223657 | -17 | 147 | 410.4 | 0.0 | 0.00 | 0.00 | 0.00 | ||
| 20260503223652 | 12 | 300 | 6.4 | 19.3 | 0.00 | 0.00 | 0.00 | 41 | 1012.1 |
| 20260503223152 | 12 | 264 | 6.4 | 17.7 | 0.00 | 0.00 | 0.00 | 41 | 1012.1 |
| 20260503222651 | 12 | 312 | 6.4 | 16.1 | 0.00 | 0.00 | 0.00 | 40 | 1012.1 |
| 20260503222158 | -17 | 147 | 410.4 | 0.0 | 0.00 | 0.00 | 0.00 | ||
| 20260503222151 | 12 | 222 | 4.8 | 20.9 | 0.00 | 0.00 | 0.00 | 40 | 1012.1 |
| 20260503221651 | 12 | 248 | 4.8 | 6.4 | 0.00 | 0.00 | 0.00 | 41 | 1012.2 |
| 20260503221151 | 12 | 96 | 6.4 | 14.5 | 0.00 | 0.00 | 0.00 | 41 | 1012.1 |
| 20260503220655 | -17 | 147 | 410.4 | 0.0 | 0.00 | 0.00 | 0.00 | ||
| 20260503220650 | 12 | 244 | 8.0 | 14.5 | 0.00 | 0.00 | 0.00 | 40 | 1012.1 |
| 20260503220150 | 12 | 148 | 8.0 | 24.1 | 0.00 | 0.00 | 0.00 | 39 | 1012.3 |
| 20260503215650 | 12 | 261 | 8.0 | 16.1 | 0.00 | 0.00 | 0.00 | 38 | 1012.1 |
| 20260503215154 | -17 | 147 | 410.4 | 0.0 | 0.00 | 0.00 | 0.00 | ||
| 20260503215149 | 12 | 277 | 8.0 | 20.9 | 0.00 | 0.00 | 0.00 | 38 | 1012.2 |
| 20260503214649 | 13 | 311 | 6.4 | 14.5 | 0.00 | 0.00 | 0.00 | 38 | 1012.1 |
| 20260503214149 | 12 | 289 | 6.4 | 19.3 | 0.00 | 0.00 | 0.00 | 37 | 1012.1 |
| 20260503213653 | -17 | 147 | 410.4 | 0.0 | 0.00 | 0.00 | 0.00 | ||
| 20260503213148 | 12 | 242 | 8.0 | 25.7 | 0.00 | 0.00 | 0.00 | 39 | 1012.0 |
| 20260503212648 | 12 | 236 | 8.0 | 20.9 | 0.00 | 0.00 | 0.00 | 39 | 1011.9 |
| 20260503212152 | -17 | 147 | 410.4 | 0.0 | 0.00 | 0.00 | 0.00 | ||
| 20260503212148 | 12 | 336 | 9.7 | 17.7 | 0.00 | 0.00 | 0.00 | 38 | 1011.9 |
| 20260503211647 | 11 | 217 | 8.0 | 22.5 | 0.00 | 0.00 | 0.00 | 38 | 1012.0 |
| 20260503211147 | 11 | 313 | 8.0 | 16.1 | 0.00 | 0.00 | 0.00 | 38 | 1011.9 |
| 20260503210652 | -17 | 147 | 410.4 | 0.0 | 0.00 | 0.00 | 0.00 | ||
| 20260503210647 | 12 | 261 | 8.0 | 16.1 | 0.00 | 0.00 | 0.00 | 38 | 1011.9 |
| 20260503210146 | 12 | 71 | 8.0 | 32.2 | 0.00 | 0.00 | 0.00 | 38 | 1011.8 |
| 20260503205646 | 12 | 238 | 6.4 | 19.3 | 0.00 | 0.00 | 0.00 | 38 | 1011.8 |
| 20260503205152 | -17 | 147 | 410.4 | 0.0 | 0.00 | 0.00 | 0.00 | ||
| 20260503205146 | 12 | 261 | 8.0 | 14.5 | 0.00 | 0.00 | 0.00 | 38 | 1011.7 |
| 20260503204646 | 12 | 226 | 9.7 | 25.7 | 0.00 | 0.00 | 0.00 | 37 | 1011.8 |
| 20260503204145 | 11 | 246 | 8.0 | 19.3 | 0.00 | 0.00 | 0.00 | 37 | 1011.9 |
| 20260503203650 | -17 | 147 | 410.4 | 0.0 | 0.00 | 0.00 | 0.00 | ||
| 20260503203645 | 12 | 267 | 6.4 | 19.3 | 0.00 | 0.00 | 0.00 | 37 | 1012.0 |
| 20260503203145 | 11 | 318 | 8.0 | 14.5 | 0.00 | 0.00 | 0.00 | 37 | 1012.0 |
| 20260503202644 | 12 | 321 | 8.0 | 17.7 | 0.00 | 0.00 | 0.00 | 37 | 1012.0 |
| 20260503202144 | 12 | 251 | 9.7 | 30.6 | 0.00 | 0.00 | 0.00 | 37 | 1012.0 |
| 20260503201644 | 12 | 246 | 11.3 | 20.9 | 0.00 | 0.00 | 0.00 | 37 | 1011.9 |
| 20260503200643 | 12 | 247 | 8.0 | 17.7 | 0.00 | 0.00 | 0.00 | 38 | 1011.9 |
| 20260503200143 | 11 | 269 | 8.0 | 16.1 | 0.00 | 0.00 | 0.00 | 37 | 1012.2 |
| 20260503195643 | 11 | 266 | 9.7 | 24.1 | 0.00 | 0.00 | 0.00 | 36 | 1012.2 |
| 20260503195147 | -17 | 147 | 410.4 | 0.0 | 0.00 | 0.00 | 0.00 | ||
| 20260503195143 | 11 | 263 | 8.0 | 20.9 | 0.00 | 0.00 | 0.00 | 37 | 1012.3 |
| 20260503194642 | 12 | 277 | 8.0 | 19.3 | 0.00 | 0.00 | 0.00 | 37 | 1012.3 |
| 20260503194142 | 12 | 289 | 8.0 | 25.7 | 0.00 | 0.00 | 0.00 | 38 | 1012.4 |
| 20260503193646 | -17 | 147 | 410.4 | 0.0 | 0.00 | 0.00 | 0.00 | ||
| 20260503193642 | 12 | 34 | 6.4 | 19.3 | 0.00 | 0.00 | 0.00 | 37 | 1012.3 |
| 20260503193141 | 12 | 264 | 6.4 | 17.7 | 0.00 | 0.00 | 0.00 | 36 | 1012.5 |
| 20260503192641 | 12 | 298 | 6.4 | 17.7 | 0.00 | 0.00 | 0.00 | 38 | 1012.5 |
| 20260503192146 | -17 | 147 | 410.4 | 0.0 | 0.00 | 0.00 | 0.00 | ||
| 20260503192141 | 12 | 190 | 6.4 | 16.1 | 0.00 | 0.00 | 0.00 | 38 | 1012.6 |
| 20260503191640 | 11 | 257 | 8.0 | 17.7 | 0.00 | 0.00 | 0.00 | 39 | 1012.7 |
| 20260503191140 | 11 | 234 | 8.0 | 24.1 | 0.00 | 0.00 | 0.00 | 39 | 1012.8 |